This demonstration page uses our WeatherBlox Daily Observations layout. Learn more.

Left ArrowRight Arrow

Hourly Observations for September 19, 2021

Temp ( °F °C ) Dew Point ( °F °C ) Humidity (%) Winds ( mph kmh ) Pressure ( in mb ) Visibility ( mi km ) Precip ( " mm )
12:54 am 00:54 Clear 74 23.3 64 17.8 71 71 S 13 20 29.99 1016 10 16 N/A
1:54 am 01:54 Clear 74 23.3 64 17.8 71 71 S 10 17 29.98 1015 10 16 N/A
2:54 am 02:54 Clear 71 21.7 63 17.2 76 76 S 12 19 29.98 1015 10 16 N/A
3:54 am 03:54 Clear 69 20.6 63 17.2 81 81 S 9 15 29.96 1015 10 16 N/A
4:54 am 04:54 Clear 68 20 62 16.7 81 81 S 6 9 29.96 1014 10 16 N/A
5:54 am 05:54 Clear 65 18.3 60 15.6 84 84 S 6 9 29.96 1014 10 16 N/A
6:54 am 06:54 Clear 65 18.3 61 16.1 87 87 SSE 9 15 29.95 1014 10 16 N/A
7:54 am 07:54 Sunny 66 18.9 62 16.7 87 87 S 7 11 29.95 1014 10 16 N/A
8:54 am 08:54 Sunny 74 23.3 65 18.3 74 74 S 13 20 29.94 1014 10 16 N/A
9:54 am 09:54 Sunny 79 26.1 66 18.9 65 65 S 17 28 29.92 1013 10 16 N/A
10:54 am 10:54 Sunny 83 28.3 66 18.9 57 57 S 17 28 29.91 1013 10 16 N/A
11:54 am 11:54 Sunny 86 30 65 18.3 49 49 S 18 30 29.87 1012 10 16 N/A
12:54 pm 12:54 Sunny 89 31.7 64 17.8 43 43 S 22 35 29.84 1010 10 16 N/A
1:54 pm 13:54 Sunny 91 32.8 63 17.2 39 39 S 23 37 29.80 1009 10 16 N/A
2:54 pm 14:54 Sunny 92 33.3 63 17.2 38 38 S 23 37 29.77 1008 10 16 N/A
3:54 pm 15:54 Sunny 92 33.3 63 17.2 38 38 SSE 26 43 29.75 1007 10 16 N/A
4:54 pm 16:54 Sunny 91 32.8 62 16.7 38 38 S 22 35 29.74 1007 10 16 N/A
5:54 pm 17:54 Sunny 89 31.7 62 16.7 41 41 SSE 23 37 29.72 1007 10 16 N/A
6:54 pm 18:54 Sunny 86 30 64 17.8 48 48 SSE 18 30 29.72 1006 10 16 N/A
7:54 pm 19:54 Clear 83 28.3 64 17.8 53 53 SSE 18 30 29.72 1007 10 16 N/A
8:54 pm 20:54 Clear 81 27.2 64 17.8 57 57 SSE 18 30 29.73 1007 10 16 N/A
9:54 pm 21:54 Clear 78 25.6 65 18.3 64 64 SSE 15 24 29.74 1007 10 16 N/A
10:54 pm 22:54 Clear 78 25.6 65 18.3 64 64 SSE 21 33 29.73 1007 10 16 N/A
11:54 pm 23:54 Clear 76 24.4 66 18.9 72 72 SSE 18 30 29.71 1006 10 16 N/A

Powered by AerisWeather